{"data":{"norad_id":61736,"epoch":"2026-09-19T22:57:12.377664Z","epoch_age_seconds":68928,"freshness":"FRESH","line1":"1 61736U 24199B   26262.95639326  .00000021  00000+0  28908-4 0  9992","line2":"2 61736  98.7007 134.9703 0001906  68.2001 291.9379 14.22772150144309","mean_motion":14.2277215,"eccentricity":0.0001906,"inclination_deg":98.7007,"raan_deg":134.9703,"arg_perigee_deg":68.2001,"mean_anomaly_deg":291.9379,"bstar":2.8908e-5,"rev_number":14430,"period_min":101.21086500041,"perigee_km":814.62162656584,"apogee_km":817.36402885617,"semimajor_km":7194.129827711,"source":"CELESTRAK","updated_at":"2026-09-20T09:00:33.980864Z"}}